Stations météo

réclame
Mon MeteoGroup
Writtle, Grande-Bretagne (99127): Température de l'air & dewpoint: 09.12.2019 14:00:00 - 15.12.2019 14:00:00 (GMT)Writtle, Grande-Bretagne (99127): Température de l'air -20cm: 09.12.2019 14:00:00 - 15.12.2019 14:00:00 (GMT)Writtle, Grande-Bretagne (99127): Quantités de précipitations: 09.12.2019 14:00:00 - 15.12.2019 14:00:00 (GMT)
Date & Time tt [°C] td [°C] tt -20cm [°C] rr [mm]
15.12.2019 14:00:00 9,9 3,0 - 0,0
15.12.2019 13:00:00 9,6 3,1 - 0,0
15.12.2019 12:00:00 9,3 3,6 - 0,0
15.12.2019 11:00:00 8,6 3,3 - 0,0
15.12.2019 10:00:00 7,1 3,1 - 0,0
15.12.2019 09:00:00 6,0 1,9 6,2 0,0
15.12.2019 08:00:00 5,1 1,2 - 0,0
15.12.2019 07:00:00 4,9 1,1 - 0,0
15.12.2019 06:00:00 4,8 1,0 - 0,0
15.12.2019 05:00:00 5,2 1,5 - 0,0
15.12.2019 04:00:00 5,7 2,7 - 0,0
15.12.2019 03:00:00 6,2 4,0 - 0,0
15.12.2019 02:00:00 5,8 4,3 - 0,0
15.12.2019 01:00:00 6,3 5,1 - 2,8
15.12.2019 00:00:00 6,7 5,5 - 6,4
14.12.2019 23:00:00 7,6 5,9 - 2,0
14.12.2019 22:00:00 7,9 3,8 - 0,0
14.12.2019 21:00:00 6,2 2,3 - 0,0
14.12.2019 20:00:00 4,6 0,3 - 0,0
14.12.2019 19:00:00 5,4 -0,2 - 0,0
14.12.2019 18:00:00 5,7 0,6 - 0,0
14.12.2019 17:00:00 5,5 0,0 - 0,0
14.12.2019 16:00:00 5,6 -1,0 - 0,0
14.12.2019 15:00:00 6,2 -1,2 - 0,0
14.12.2019 14:00:00 6,9 -1,1 - 0,0
14.12.2019 13:00:00 7,3 0,7 - 0,0
14.12.2019 12:00:00 7,3 3,2 - 0,0
14.12.2019 11:00:00 5,8 4,1 - 0,4
14.12.2019 10:00:00 5,9 2,2 - 0,0
14.12.2019 09:00:00 4,9 1,2 6,7 0,0
14.12.2019 08:00:00 4,1 0,0 - 0,0
14.12.2019 07:00:00 4,4 1,0 - 0,0
14.12.2019 06:00:00 5,0 1,9 - 0,0
14.12.2019 05:00:00 4,3 3,0 - 0,0
14.12.2019 04:00:00 3,8 2,7 - 0,2
14.12.2019 03:00:00 3,8 2,7 - 0,0
14.12.2019 02:00:00 4,6 3,6 - 0,0
14.12.2019 01:00:00 4,5 3,6 - 1,2
14.12.2019 00:00:00 4,7 3,4 - 1,0
13.12.2019 23:00:00 5,4 3,6 - 0,8
13.12.2019 22:00:00 6,4 2,2 - 0,0
13.12.2019 21:00:00 6,2 1,7 - 0,0
13.12.2019 20:00:00 6,0 1,4 - 0,0
13.12.2019 19:00:00 5,9 1,1 - 0,0
13.12.2019 18:00:00 5,5 0,9 - 0,0
13.12.2019 17:00:00 6,3 1,3 - 0,0
13.12.2019 16:00:00 7,4 1,5 - 0,0
13.12.2019 15:00:00 7,6 2,4 - 0,0
13.12.2019 14:00:00 7,9 2,7 - 0,0
13.12.2019 13:00:00 - - - 0,0
13.12.2019 12:00:00 7,6 3,3 - 0,0
13.12.2019 11:00:00 7,0 3,5 - 0,0
13.12.2019 10:00:00 6,5 3,9 - 0,0
13.12.2019 09:00:00 5,8 4,3 6,7 0,2
13.12.2019 08:00:00 5,6 4,4 - 1,2
13.12.2019 07:00:00 5,0 4,0 - 1,6
13.12.2019 06:00:00 5,3 3,9 - 0,4
13.12.2019 05:00:00 5,9 4,9 - 2,4
13.12.2019 04:00:00 5,9 5,0 - 1,8
13.12.2019 03:00:00 6,2 5,4 - 1,6
13.12.2019 02:00:00 6,6 5,8 - 1,4
13.12.2019 01:00:00 6,9 6,0 - 0,2
13.12.2019 00:00:00 7,1 6,0 - 0,0
12.12.2019 23:00:00 7,4 6,1 - 0,0
12.12.2019 22:00:00 7,4 6,3 - 0,0
12.12.2019 21:00:00 7,5 6,8 - 0,0
12.12.2019 20:00:00 7,3 6,8 - 0,6
12.12.2019 19:00:00 7,3 6,7 - 1,0
12.12.2019 18:00:00 7,3 6,5 - 1,8
12.12.2019 17:00:00 7,9 6,8 - 0,8
12.12.2019 16:00:00 7,8 6,9 - 0,4
12.12.2019 15:00:00 8,0 7,0 - 0,0
12.12.2019 14:00:00 7,5 6,8 - 0,0
12.12.2019 13:00:00 6,9 6,0 - 0,4
12.12.2019 12:00:00 6,5 5,3 - 1,0
12.12.2019 11:00:00 5,9 4,7 - 0,4
12.12.2019 10:00:00 4,3 2,9 - 0,2
12.12.2019 09:00:00 3,1 1,4 6,5 0,2
12.12.2019 08:00:00 1,7 0,3 - 0,0
12.12.2019 07:00:00 1,4 0,2 - 0,0
12.12.2019 06:00:00 0,9 0,0 - 0,0
12.12.2019 05:00:00 0,2 -0,5 - 0,0
12.12.2019 04:00:00 0,6 -0,5 - 0,0
12.12.2019 03:00:00 1,2 0,2 - 0,0
12.12.2019 02:00:00 1,5 0,6 - 0,0
12.12.2019 01:00:00 1,4 0,5 - 0,0
12.12.2019 00:00:00 1,5 0,6 - 0,0
11.12.2019 23:00:00 2,0 1,0 - 0,0
11.12.2019 22:00:00 2,4 1,2 - 0,0
11.12.2019 21:00:00 3,0 1,6 - 0,0
11.12.2019 20:00:00 4,1 2,1 - 0,0
11.12.2019 19:00:00 4,7 2,7 - 0,0
11.12.2019 18:00:00 5,2 2,7 - 0,0
11.12.2019 17:00:00 6,0 3,4 - 0,0
11.12.2019 16:00:00 6,4 3,1 - 0,0
11.12.2019 15:00:00 7,2 2,9 - 0,0
11.12.2019 14:00:00 8,5 3,5 - 0,0
11.12.2019 13:00:00 8,0 3,8 - 0,0
11.12.2019 12:00:00 7,4 4,0 - 0,0
11.12.2019 11:00:00 6,4 3,4 - 0,0
11.12.2019 10:00:00 4,4 2,6 - 0,0
11.12.2019 09:00:00 3,3 2,1 6,9 0,0
11.12.2019 08:00:00 2,9 1,8 - 0,0
11.12.2019 07:00:00 4,0 2,6 - 0,0
11.12.2019 06:00:00 3,8 2,2 - 0,0
11.12.2019 05:00:00 4,4 2,9 - 0,0
11.12.2019 04:00:00 4,7 3,1 - 0,0
11.12.2019 03:00:00 5,3 3,2 - 0,2
11.12.2019 02:00:00 5,9 3,7 - 0,0
11.12.2019 01:00:00 6,8 4,8 - 0,0
11.12.2019 00:00:00 7,8 5,4 - 0,0
10.12.2019 23:00:00 8,4 6,1 - 0,0
10.12.2019 22:00:00 8,8 6,9 - 0,6
10.12.2019 21:00:00 10,0 7,9 - 1,2
10.12.2019 20:00:00 10,6 9,2 - 0,0
10.12.2019 19:00:00 10,4 8,8 - 0,0
10.12.2019 18:00:00 10,6 8,3 - 0,0
10.12.2019 17:00:00 10,1 8,1 - 0,0
10.12.2019 16:00:00 9,8 7,8 - 0,0
10.12.2019 15:00:00 9,0 7,6 - 0,0
10.12.2019 14:00:00 9,4 7,2 - 0,2
10.12.2019 13:00:00 8,7 6,9 - 0,2
10.12.2019 12:00:00 8,7 6,6 - 0,2
10.12.2019 11:00:00 8,8 5,4 - 0,0
10.12.2019 10:00:00 7,3 4,7 - 0,0
10.12.2019 09:00:00 5,2 2,9 6,7 0,0
10.12.2019 08:00:00 4,3 2,5 - 0,2
10.12.2019 07:00:00 2,4 1,0 - 0,0
10.12.2019 06:00:00 2,4 0,5 - 0,0
10.12.2019 05:00:00 1,2 0,3 - 0,0
10.12.2019 04:00:00 0,5 0,0 - 0,0
10.12.2019 03:00:00 -2,2 -2,7 - 0,0
10.12.2019 02:00:00 -1,9 -2,4 - 0,0
10.12.2019 01:00:00 -1,5 -2,0 - 0,0
10.12.2019 00:00:00 -1,8 -2,4 - 0,0
09.12.2019 23:00:00 -1,6 -2,3 - 0,0
09.12.2019 22:00:00 -1,1 -2,1 - 0,0
09.12.2019 21:00:00 -0,2 -1,6 - 0,0
09.12.2019 20:00:00 0,1 -2,2 - 0,0
09.12.2019 19:00:00 2,3 -1,8 - 0,0
09.12.2019 18:00:00 4,6 -1,2 - 0,0
09.12.2019 17:00:00 5,4 -1,1 - 0,2
09.12.2019 16:00:00 6,6 -0,9 - 0,0
09.12.2019 15:00:00 7,4 -0,3 - 0,0
09.12.2019 14:00:00 8,1 -0,3 - 0,0

tt = Température de l'air
td = dewpoint
tt -20cm = Température de l'air -20cm
rr = Quantités de précipitations

stations d'obs. à proximité